Location: Colle San Luigi
(43.5500°N, 13.4167°E)
Time: 12:10:13
(UTC+00:00)

CZ-4C R/B - Pass Details

Date: 09 April 2020
Orbit: 637 x 1365 km, 63.4° (Epoch: 05 June)

Event Time Altitude Azimuth Distance (km) Brightness Sun altitude
Rises 19:02:43 0° 323° (NW) 3,650 6.7 -14.5°
Reaches altitude 10° 19:05:53 10° 340° (NNW) 2,833 5.6 -15.0°
Maximum altitude 19:10:54 21° 27° (NNE) 2,305 4.5 -15.8°
Drops below altitude 10° 19:16:29 10° 74° (ENE) 3,203 4.8 -16.7°
Enters shadow 19:16:31 10° 74° (ENE) 3,212 4.8 -16.7°
